Location: Mountain View
(37.3861°N, 122.0839°W)
Time: 00:50:01
(UTC-07:00)

Tiangong 2 - Visible Passes

Search period start: 24 May 2017 00:00
Search period end: 03 June 2017 00:00
Orbit: 380 x 389 km, 42.8° (Epoch: 23 May)

Date Brightness Start Highest point End Pass type
(mag) Time Alt. Az. Time Alt. Az. Time Alt. Az.
24 May 1.6 21:48:09 10° W 21:51:17 60° NNW 21:54:07 12° ENE visible
24 May 4.1 23:25:33 10° WNW 23:26:22 15° WNW 23:26:22 15° WNW visible
25 May 1.0 20:48:28 10° WSW 20:51:39 82° SSE 20:54:49 10° ENE visible
25 May 2.8 22:25:42 10° WNW 22:28:35 32° N 22:29:55 22° NE visible
26 May 2.4 21:25:48 10° W 21:28:49 41° NNW 21:31:52 10° ENE visible
26 May 3.2 23:03:09 10° WNW 23:05:25 27° NNW 23:05:25 27° NNW visible
27 May 3.0 22:03:20 10° WNW 22:06:11 29° N 22:08:31 13° NE visible
27 May 4.3 23:40:17 10° WNW 23:40:43 13° NW 23:40:43 13° NW visible
28 May 2.8 21:03:27 10° WNW 21:06:22 32° N 21:09:17 10° ENE visible
28 May 2.5 22:40:38 10° WNW 22:43:33 33° N 22:43:42 33° NNE visible
29 May 2.9 21:40:53 10° WNW 21:43:44 29° N 21:46:35 10° ENE visible
29 May 3.6 23:17:38 10° WNW 23:18:48 20° WNW 23:18:48 20° WNW visible
30 May 2.0 22:17:59 10° WNW 22:21:03 43° NNE 22:21:42 37° NE visible
31 May 2.6 21:18:18 10° WNW 21:21:14 33° N 21:24:10 10° ENE visible
31 May 2.8 22:54:59 10° WNW 22:56:45 30° WNW 22:56:45 30° WNW visible
01 Jun 1.3 21:55:17 10° WNW 21:58:26 64° NNE 21:59:36 34° E visible
02 Jun 2.1 20:55:36 10° WNW 20:58:40 43° NNE 21:01:43 10° E visible
02 Jun 2.3 22:32:24 10° WNW 22:34:39 33° WSW 22:34:39 33° WSW visible
